User: anonymous   Login
Location: CNYAC Observatory
(43.2150°N, 74.9500°W)
Time: 02:53:23
(UTC-04:00)
Language:

Cosmos 1300 Rocket - Orbit

View from above orbital plane
View from above orbital plane
View from above satellite
View from above satellite

Ground track
Ground track

The orbit data is extracted from the following two-line orbital elements,

1 12786U 81082B   15209.50396861  .00000156  00000-0  15683-4 0  9997
2 12786 082.4877 257.6474 0018008 016.4322 343.7474 14.84495008832482
Epoch (UTC): 28 July 2015 12:05:42
Eccentricity: 0.0018008
inclination: 82.4877°
perigee height: 602 km
apogee height: 628 km
right ascension of ascending node: 257.6474°
argument of perigee: 16.4322°
revolutions per day: 14.84495008
mean anomaly at epoch: 343.7474°
orbit number at epoch: 83248

The dashed part of the orbit path shows where the satellite is in the earth's shadow,  

DLR